Location: ????????
(55.5127°N, 38.0421°E)
Time: 13:46:39
(UTC+00:00)

Daily predictions for brighter satellites

Satellite Brightness Start Highest point End
(mag) Time Altitude Azimuth Time Altitude Azimuth Time Altitude Azimuth
Meteor 1-13 Rocket 4.4 19:01:05 10° S 19:07:01 77° E 19:12:58 10° NNE
Cosmos 923 Rocket 4.1 19:05:48 10° S 19:10:54 58° ESE 19:16:01 10° NNE
Cosmos 1470 Rocket 3.6 19:08:09 10° N 19:12:38 78° ENE 19:17:04 10° SSE
CZ-4B R/B 3.9 19:08:31 10° S 19:13:40 66° WSW 19:18:55 10° NNW
Lacrosse 4 Rocket 3.5 19:11:02 10° NNW 19:14:31 24° NNE 19:17:59 10° E
S3M 4.0 19:12:14 10° S 19:18:21 81° E 19:24:35 10° NNE
Cosmos 2112 Rocket 4.4 19:13:38 10° S 19:18:30 43° ESE 19:23:24 10° NE
Cosmos 1110 Rocket 4.3 19:14:23 10° NNW 19:19:33 64° ENE 19:24:40 10° SE
Cosmos 1933 Rocket 4.1 19:15:45 10° N 19:19:55 45° ENE 19:24:05 10° SE
Helios 1B rocket 3.7 19:18:07 10° ESE 19:20:54 23° ENE 19:23:41 10° N
NOSS 3-2 (C) 3.6 19:15:59 10° WSW 19:21:20 75° NW 19:27:58 10° NE
Cosmos 1953 3.5 19:19:06 10° NNW 19:22:21 33° W 19:25:34 10° SSW
Cosmos 1709 Rocket 4.3 19:15:59 10° NNW 19:22:21 74° W 19:28:42 10° S
GP-B 3.7 19:18:17 10° N 19:22:35 57° W 19:26:52 10° SSW
Cosmos 1328 Rocket 3.5 19:19:03 10° S 19:23:23 89° ESE 19:27:44 10° NNE
Cosmos 1371 Rocket 4.3 19:19:10 10° NNW 19:24:23 66° WSW 19:29:31 10° SSE
Cosmos 2082 Rocket 2.3 19:20:12 10° NW 19:25:53 86° WSW 19:31:30 10° SSE
NOSS 2-1 (C) 3.9 19:23:56 10° S 19:26:56 25° SE 19:29:32 10° ENE
Okean 3 4.4 19:23:47 10° SSE 19:27:18 30° E 19:30:50 10° NNE
Cosmos 1452 Rocket 4.0 19:24:33 10° NNW 19:29:44 54° NE 19:34:54 10° SE
Cosmos 1441 Rocket 4.3 19:27:56 10° SE 19:30:30 22° E 19:33:06 10° NE
CENTAUR R/B 4.1 19:24:14 10° WNW 19:30:44 47° N 19:38:49 10° ENE
Cosmos 1812 2.2 19:32:08 10° NNE 19:33:38 25° ENE 19:34:54 12° SE
Cosmos 2278 Rocket 2.4 19:28:24 10° S 19:33:53 54° ESE 19:39:24 10° NE
Cosmos 494 Rocket 4.1 19:31:24 10° S 19:36:32 60° ESE 19:41:43 10° NNE
CZ-2C R/B 2.6 19:34:33 10° S 19:37:11 46° WSW 19:39:52 10° NNW
USA 238 DEB 3.6 19:31:24 10° SSW 19:37:28 60° SE 19:44:14 10° NE
USA 238 3.6 19:31:37 10° SSW 19:37:41 59° SE 19:44:27 10° NE
Meteor 1-21 4.3 19:32:41 10° S 19:38:19 85° ESE 19:44:03 10° NNE
Helios 1A 3.8 19:37:50 10° NNE 19:41:27 33° E 19:44:59 10° SSE
Cosmos 1331 Rocket 4.0 19:38:50 10° NNW 19:44:01 86° ENE 19:49:09 10° SSE
Cosmos 1943 Rocket 2.2 19:40:24 10° SSW 19:46:03 78° ESE 19:51:41 10° NE
Cosmos 1869 Rocket 3.7 19:47:56 10° N 19:52:14 66° ENE 19:56:19 11° SSE
Lacrosse 5 rocket 1.0 19:49:47 10° WSW 19:53:22 83° NNW 19:56:53 10° ENE
ARIANE 5 R/B 3.4 19:50:38 10° SE 19:54:49 43° ENE 19:59:00 10° N
CZ-2C R/B 4.2 19:55:14 10° ESE 19:59:33 27° NE 20:03:59 10° N
USA 81 4.1 19:58:11 10° N 20:03:30 89° W 20:08:36 11° S
Cosmos 1733 Rocket 3.9 20:00:11 10° N 20:04:15 40° ENE 20:08:13 11° SE
Cosmos 1515 Rocket 3.6 20:00:13 10° SSW 20:04:34 85° WNW 20:08:54 10° N
COSMOS 2406 3.3 20:02:07 10° NW 20:07:51 86° WSW 20:13:17 11° SSE
NOSS 7 (E) 4.2 20:05:33 10° NW 20:08:49 76° SW 20:11:47 11° SE
Cosmos 1048 Rocket 4.2 20:04:10 10° S 20:09:15 56° ESE 20:14:27 10° NNE
Cosmos 1680 Rocket 3.7 20:04:29 10° SW 20:09:41 74° WNW 20:14:56 10° NNE
ALOS 2 3.2 20:06:36 11° SE 20:10:44 51° ENE 20:15:01 10° N
Okean 2 3.8 20:08:52 10° SSW 20:12:39 55° WNW 20:16:28 10° N
Cosmos 2369 Rocket 3.7 20:08:55 10° SE 20:12:44 20° E 20:16:43 10° NE
Cosmos 1400 Rocket 3.5 20:11:56 10° NNW 20:15:23 40° W 20:18:44 10° SSW
Cosmos 972 Rocket 4.3 20:11:34 10° NNW 20:17:20 74° ENE 20:22:12 12° SSE
USA 215 3.4 20:14:15 10° SE 20:20:43 62° SSW 20:27:13 10° WNW
IKONOS-2 4.4 20:16:36 10° NNE 20:20:44 87° ESE 20:24:48 10° SSW
USA 290 3.2 20:20:24 10° NNW 20:23:23 39° NE 20:26:22 10° SE
Cosmos 1656 Rocket 4.1 20:18:20 11° S 20:23:23 45° ESE 20:28:41 10° NE
ARIANE 6 FM1 Upper Stage 4.0 20:22:13 14° SSE 20:24:38 22° SE 20:27:50 10° ENE
Cosmos 1315 Rocket 3.8 20:21:47 10° N 20:25:21 37° ENE 20:28:46 11° SE
Cosmos 2074 Rocket 4.2 20:22:00 10° NNW 20:28:13 72° W 20:33:59 12° S
Cosmos 1302 Rocket 4.1 20:23:27 10° NNW 20:28:47 89° ENE 20:33:36 13° SSE
NOSS 2-1 (E) 2.7 20:28:33 10° SW 20:32:07 78° SE 20:35:11 10° NE
NOSS 3-1 (C) 4.0 20:34:30 14° S 20:37:50 28° ESE 20:42:34 10° ENE
PSLV R/B 4.4 20:33:37 10° NNE 20:38:04 43° E 20:41:46 14° SSE
Cosmos 2344 3.6 20:30:55 10° WSW 20:38:21 80° NW 20:45:50 10° NE
Okean 1-7 3.7 20:35:56 14° SSE 20:39:12 42° E 20:43:13 10° NNE
Spot 4 3.9 20:38:57 14° S 20:43:08 77° WSW 20:47:59 10° NNW
USA 276 2.9 20:42:05 10° SW 20:44:06 21° SSE 20:46:19 10° ESE
Cosmos 220 Rocket 4.2 20:46:10 10° NNW 20:50:22 64° ENE 20:54:16 11° SE
USA 59 Rocket 0.0 20:47:45 10° WSW 20:50:53 51° NNW 20:53:45 10° NE
Cosmos 1328 3.4 20:48:02 15° S 20:50:55 85° E 20:54:28 10° NNE
Lacrosse 4 Rocket 1.4 20:48:38 10° NW 20:52:52 82° NE 20:57:01 10° SE
Helios 1B rocket 2.8 20:51:01 14° SSW 20:53:38 40° W 20:56:55 10° NNW
NOSS 2-1 (D) 3.4 20:52:30 10° WSW 20:55:44 55° NNW 20:58:40 10° NE
Cosmos 2218 Rocket 4.4 20:50:27 10° N 20:56:45 61° ENE 21:02:35 12° SSE
Nadezhda 1 Rocket 4.0 20:51:27 13° S 20:57:07 85° E 21:03:26 10° NNE
Cosmos 1992 Rocket 4.0 20:53:00 10° NNW 20:58:14 89° WSW 21:02:55 13° SSE
COSMOS 2455 4.1 20:55:28 13° SSE 20:59:30 25° ESE 21:04:16 10° ENE
ATLAS 5 CENTAUR R/B 1.3 20:58:21 18° S 21:00:07 35° SE 21:03:03 10° ENE
Meteor 1-24 Rocket 4.2 20:59:01 14° S 21:04:05 56° E 21:09:58 10° NNE
Cosmos 1441 Rocket 4.3 21:01:19 10° SW 21:04:15 31° WNW 21:07:12 10° N
GEOS 3 Rocket 3.7 21:00:11 10° SE 21:05:32 70° SW 21:10:57 10° NW
ACS3 Solar Sail 2.6 21:03:29 10° NNE 21:08:38 34° E 21:13:26 12° SSE
Cosmos 2082 Rocket 3.9 21:05:13 10° NW 21:09:11 20° W 21:13:08 10° SW
USA 308 2.8 21:07:45 14° SW 21:10:03 35° SSE 21:13:45 10° E
NOSS 2-1 (C) 3.8 21:12:21 10° WSW 21:15:31 46° NNW 21:18:25 10° NE
Helios 1A 4.3 21:12:31 10° N 21:16:07 34° WNW 21:19:42 10° SW
Cosmos 2278 Rocket 3.4 21:12:46 10° WSW 21:18:09 43° NW 21:23:33 10° NNE
MetOp-A 3.2 21:15:10 16° SSE 21:18:10 88° WSW 21:21:58 10° NNW
Cosmos 1869 3.1 21:16:59 10° N 21:20:26 69° ENE 21:23:05 16° SSE
CENTAUR R/B 3.8 21:15:22 10° WNW 21:22:41 59° NNE 21:31:35 10° ESE
NOSS 2-2 (C) 3.5 21:20:12 10° NW 21:23:28 63° NE 21:27:40 10° ESE
Cosmos 614 Rocket 4.1 21:18:32 10° SW 21:23:36 74° WNW 21:28:41 10° NNE
SL-8 Rocket 4.0 21:18:09 10° NNW 21:24:20 82° W 21:29:41 14° S
SL-4 R/B 2.4 21:22:41 16° SSW 21:24:29 25° SSE 21:27:10 10° ESE
SL-12 R/B(2) 4.5 21:16:39 10° SSW 21:24:42 67° SE 21:34:42 10° NE
Meteor 2-5 Rocket 4.0 21:21:58 15° S 21:26:55 69° E 21:32:49 10° NNE
Cosmos 1174 4.0 21:23:52 10° WSW 21:27:29 55° NW 21:30:38 10° NE
USA 238 DEB 4.3 21:22:12 10° WSW 21:28:31 59° NNW 21:35:38 10° NE
USA 238 4.3 21:22:25 10° WSW 21:28:45 59° NNW 21:35:51 10° NE
Lacrosse 5 rocket 1.2 21:26:31 10° WNW 21:30:03 70° N 21:33:30 10° E
Cosmos 1943 Rocket 3.9 21:25:16 10° W 21:30:20 33° NW 21:35:23 10° NNE
Cosmos 1300 Rocket 4.0 21:26:06 10° N 21:30:24 56° ENE 21:34:16 12° SSE
CZ-2C R/B 4.5 21:25:51 10° N 21:30:25 51° WNW 21:34:57 10° SW
ARIANE 5 R/B 3.9 21:27:49 13° SSW 21:31:15 31° W 21:35:11 10° NNW
SL-8 R/B 4.2 21:29:45 10° WSW 21:34:03 35° S 21:38:22 10° ESE
CZ-2C R/B 3.1 21:28:59 10° NNE 21:34:27 81° ESE 21:38:51 14° SSW
Cosmos 1833 4.3 21:32:58 10° NW 21:38:34 65° WSW 21:43:41 13° SSE
Cosmos 2341 Rocket 4.1 21:32:27 10° NNW 21:38:40 70° W 21:44:01 14° S
CZ-2C R/B 2.7 21:34:58 15° S 21:39:23 70° WSW 21:44:43 10° NNW
BREEZE-M DEB (TANK) 3.8 21:29:19 10° W 21:40:08 41° SSW 21:44:01 10° SE
Cosmos 1733 Rocket 4.3 21:38:03 10° NNW 21:41:47 29° W 21:45:08 12° SSW
SAR-Lupe-2 4.2 21:42:23 17° SSW 21:44:27 35° W 21:47:26 10° NNW
ALOS 2 4.1 21:44:00 12° SSW 21:47:20 26° W 21:51:02 10° NW
Meteor 2-13 Rocket 4.5 21:43:01 14° S 21:48:24 88° W 21:54:33 10° NNE
Cosmos 1707 Rocket 4.1 21:45:49 12° SSW 21:49:42 53° WNW 21:54:03 10° N
Cosmos 2297 Rocket 3.5 21:44:19 10° NNW 21:49:42 42° NE 21:55:04 10° ESE
Cosmos 2228 Rocket 3.3 21:48:39 14° SSW 21:52:20 68° WNW 21:56:46 10° N
Cosmos 1703 Rocket 3.7 21:49:16 16° S 21:52:46 70° E 21:57:11 10° NNE
OPS 8737 4.1 21:49:49 10° NW 21:53:07 77° SW 21:56:12 10° SE
Landsat 5 3.8 21:49:53 10° NNE 21:53:28 45° E 21:56:17 15° S
Cosmos 1356 Rocket 3.9 21:50:02 10° NNW 21:53:54 47° W 21:56:55 16° SSW
Cosmos 2369 Rocket 2.2 21:50:39 11° SSW 21:56:00 87° ESE 22:01:39 10° NE
USA 290 3.9 21:54:52 10° WNW 21:57:14 20° WSW 21:58:47 14° SW
Cosmos 2297 3.7 21:54:48 12° SSW 22:00:10 83° ESE 22:05:56 10° NE
Cosmos 1315 Rocket 4.1 21:57:32 10° NW 22:00:45 26° W 22:03:25 13° SW
ARIANE 6 FM1 Upper Stage 2.6 21:59:01 10° SW 22:03:12 88° NW 22:07:18 10° NE
USA 215 4.3 22:00:17 13° S 22:04:39 26° SW 22:09:57 10° WNW
Cosmos 540 Rocket 3.7 22:03:47 10° NNW 22:08:54 71° ENE 22:13:58 10° SE
USA 276 2.9 22:14:04 10° WSW 22:16:21 24° S 22:18:47 10° SE
USA 32 4.4 22:11:41 10° N 22:16:54 64° E 22:22:05 10° SSE
Cosmos 1908 Rocket 4.5 22:18:27 10° NNW 22:22:31 36° W 22:25:58 13° SSW
NOSS 3-1 (A) 3.3 22:18:34 13° SSW 22:22:46 57° SE 22:28:36 10° NE
NOSS 3-1 (C) 3.3 22:22:55 10° WSW 22:27:51 77° NW 22:34:04 10° NE
Nadezhda 3 Rocket 4.1 22:24:15 12° S 22:30:02 76° E 22:36:21 10° NNE
Lacrosse 4 Rocket 3.1 22:27:11 10° WNW 22:30:08 19° WSW 22:32:24 13° SSW
Cosmos 1346 Rocket 3.5 22:27:05 12° SSE 22:30:13 41° E 22:33:41 10° NNE
DELTA 2 DEB (DPAF) 4.1 22:27:19 10° NNE 22:30:48 50° ESE 22:33:46 13° S
USA 308 2.5 22:28:16 10° WSW 22:31:45 68° S 22:35:59 10° E
Cosmos 2181 Rocket 4.3 22:28:01 12° SSW 22:33:53 67° WNW 22:40:19 10° N
Cosmos 1818 3.6 22:30:41 10° SW 22:36:08 88° SE 22:41:39 10° NE
ADEOS Rocket 4.1 22:30:28 10° NNE 22:36:12 36° E 22:41:27 10° SSE
NOSS 2-2 (E) 3.2 22:33:02 10° NW 22:36:22 81° NE 22:40:41 10° SE
USA 59 Rocket 2.1 22:37:41 10° WNW 22:39:57 19° N 22:42:14 10° NE
Cosmos 1782 Rocket 4.2 22:37:35 10° NNW 22:41:45 43° W 22:45:24 13° SSW
ATLAS 5 CENTAUR R/B 2.1 22:39:06 10° W 22:41:58 38° NNW 22:45:12 10° NE
COSMOS 2455 2.9 22:38:44 10° SW 22:44:46 89° NW 22:50:50 10° NE
Cosmos 304 Rocket 4.2 22:40:42 12° S 22:44:56 54° ESE 22:49:35 10° NE
Cosmos 1140 Rocket 3.5 22:43:28 12° SSW 22:48:11 87° ESE 22:53:21 10° NNE
ACS3 Solar Sail 2.1 22:45:37 10° N 22:51:06 54° WNW 22:56:43 10° SW
Cosmos 1656 4.4 22:46:54 10° S 22:51:57 42° ESE 22:57:10 10° NE
CZ-4C R/B 3.2 22:49:45 10° N 22:53:24 67° WNW 22:56:38 12° SSW
Cosmos 1763 Rocket 3.7 22:50:32 10° NW 22:55:27 52° WSW 23:00:19 10° S
Cosmos 371 Rocket 3.6 22:52:11 11° S 22:56:40 59° ESE 23:01:25 10° NNE
SL-4 R/B 1.7 22:58:17 10° WSW 23:01:18 40° S 23:04:15 10° ESE
Cosmos 2227 Rocket 3.0 22:58:36 10° NNW 23:04:11 55° NE 23:09:43 10° SE
NOSS 2-2 (D) 3.5 23:02:39 10° WNW 23:06:01 48° SW 23:10:23 10° SSE
SJ 16-02 1.7 23:02:28 10° S 23:06:31 55° ESE 23:10:42 10° NNE
Lacrosse 5 rocket 0.9 23:03:07 10° WNW 23:06:33 55° SSW 23:09:52 10° SE
PSLV R/B 3.8 23:03:36 10° NNE 23:07:29 87° ESE 23:11:14 11° SSW
Cosmos 1605 Rocket 4.1 23:01:14 10° N 23:07:35 83° E 23:13:47 10° SSE
CZ-2D R/B 4.4 23:04:43 10° NE 23:08:25 18° E 23:12:03 10° SE
NOSS 2-2 (C) 4.5 23:09:07 10° WNW 23:12:13 25° SW 23:16:05 10° S
CENTAUR R/B 3.3 23:06:00 10° NW 23:13:54 75° SW 23:23:13 10° SE
Cosmos 921 Rocket 3.0 23:10:28 10° SSW 23:14:34 72° WNW 23:18:44 10° NNE
SL-8 R/B 4.5 23:11:33 10° WSW 23:15:40 30° SSW 23:19:46 10° SE
Spot 1 4.5 23:11:04 10° NNE 23:16:04 81° ESE 23:20:50 10° SSW
Iridium 82 4.4 23:15:21 12° SSW 23:17:52 46° W 23:20:37 10° N
IDEFIX/ARIANE 42P 2.9 23:13:51 10° NNE 23:19:05 66° ESE 23:24:16 10° S
Cosmos 1455 Rocket 4.2 23:18:16 10° N 23:22:25 43° ENE 23:26:34 10° SE
FENGYUN 3A 4.1 23:18:19 10° NNE 23:23:38 58° ESE 23:28:54 10° S
Cosmos 2251 Rocket 4.3 23:19:22 10° S 23:24:27 46° ESE 23:29:34 10° NE
Cosmos 1378 Rocket 3.5 23:22:28 10° SSW 23:26:45 87° WNW 23:31:04 10° NNE
Cosmos 405 Rocket 2.1 23:24:42 10° S 23:27:39 72° ESE 23:30:39 10° NNE
Geosat 4.2 23:23:41 10° NNE 23:28:42 73° NW 23:33:40 10° SW
H-2A R/B 4.1 23:24:42 10° NE 23:28:50 23° E 23:32:52 10° SE
Nimbus 7 Rocket 4.5 23:23:19 10° NNE 23:29:15 84° ESE 23:35:07 10° SSW
MSX 4.0 23:23:31 10° NNE 23:29:20 78° ESE 23:35:05 10° SSW
Aureole 3 4.5 23:23:30 10° S 23:29:57 89° W 23:35:38 10° NNE
SeaSat 1 3.6 23:28:02 10° ESE 23:32:45 48° NE 23:37:28 10° NNW
Cosmos 2228 4.4 23:28:55 10° N 23:32:54 38° ENE 23:36:52 10° SE
Cosmos 2297 Rocket 2.4 23:28:26 10° NW 23:33:58 55° WSW 23:39:29 10° SSE
ADEOS II 4.3 23:30:51 10° NE 23:34:45 21° E 23:38:38 10° SE
Cosmos 468 Rocket 4.3 23:30:29 10° NW 23:35:24 48° WSW 23:40:17 10° S
Cosmos 1782 3.3 23:32:46 10° N 23:36:14 51° ENE 23:39:40 10° SSE
BREEZE-M DEB (TANK) 4.0 23:21:44 10° WSW 23:36:33 53° S 23:40:35 10° ESE
Cosmos 1437 Rocket 3.8 23:35:04 10° N 23:38:22 41° ENE 23:41:37 10° SE
NPP 3.9 23:34:24 10° NNE 23:39:50 73° ESE 23:45:14 10° S
Cosmos 2369 Rocket 3.8 23:35:47 10° W 23:40:41 30° NW 23:45:38 10° NNE
Meteor 1-11 4.4 23:36:14 10° SSW 23:41:51 71° WNW 23:47:38 10° NNE
ARIANE 6 FM1 Upper Stage 4.1 23:38:42 10° W 23:42:34 37° NNW 23:46:21 10° NE
Meteor 2-1 Rocket 4.5 23:37:43 10° NNW 23:43:26 61° W 23:49:11 10° S
Cosmos 2084 Rocket 4.4 23:40:01 10° SSW 23:43:39 34° SE 23:47:22 10° ENE
USA 229 DEB 4.5 23:39:40 10° S 23:45:11 38° ESE 23:51:21 10° NE
